CW8261 Weather Reports


time (UTC)temp
F
wind
direction
speed
knots
gust
knots
rain 1hr
in
rain 24hr
in
rain mn
in
humidity
%
barometer
mb
20260505112018 58 17 8.7 12.2 0.12 0.22 0.14 87 1007.7
20260505111019 59 18 6.1 10.4 0.12 0.22 0.14 91 1007.6
20260505102017 61 16 0.9 2.6 0.00 0.10 0.02 82 1006.1
20260505101040 61 160 0.0 1.7 0.00 0.10 0.02 81 1006.0
20260505100021 61 159 1.7 2.6 0.00 0.10 0.02 81 1006.0
20260505095017 61 170 1.7 3.5 0.00 0.10 0.02 82 1006.1
20260505094017 61 174 2.6 3.5 0.00 0.10 0.02 81 1006.1
20260505093017 61 173 1.7 2.6 0.02 0.10 0.02 82 1006.2
20260505092017 61 187 0.9 2.6 0.02 0.10 0.02 81 1006.3
20260505091020 62 81 0.0 0.9 0.02 0.10 0.02 80 1006.4
20260505090017 62 170 1.7 2.6 0.02 0.10 0.02 80 1006.6
20260505085018 63 155 1.7 3.5 0.02 0.10 0.02 78 1006.7
20260505084018 63 165 1.7 2.6 0.02 0.10 0.02 75 1006.9
20260505083020 63 168 2.6 4.3 0.00 0.08 0.00 74 1006.8
20260505082019 64 154 0.9 1.7 0.00 0.08 0.00 73 1006.7
20260505081019 65 173 1.7 2.6 0.00 0.08 0.00 72 1006.7
20260505080020 66 142 0.9 4.3 0.00 0.08 0.00 67 1006.8
20260505075059 66 55 1.7 5.2 0.00 0.08 0.00 67 1007.1
20260505074019 67 24 3.5 7.0 0.00 0.08 0.00 68 1007.2
20260505073016 66 20 8.7 12.2 0.00 0.08 0.00 69 1007.5
20260505072017 66 350 8.7 13.0 0.00 0.08 0.00 71 1007.5
20260505071040 66 209 1.7 3.5 0.00 0.08 0.00 71 1006.1
20260505070020 66 207 1.7 3.5 0.00 0.08 0.00 70 1005.8
20260505065017 66 208 1.7 3.5 0.00 0.08 0.00 69 1005.8
20260505064017 66 209 2.6 4.3 0.00 0.08 0.00 69 1005.7
20260505063037 67 207 2.6 4.3 0.00 0.08 0.00 69 1005.6
20260505062038 67 203 2.6 3.5 0.00 0.08 0.00 68 1005.5
20260505061018 67 206 2.6 4.3 0.00 0.09 0.00 68 1005.5
20260505060018 67 207 2.6 5.2 0.00 0.09 0.00 67 1005.4
20260505055018 67 207 2.6 4.3 0.00 0.09 0.00 67 1005.4
20260505054019 67 209 2.6 4.3 0.00 0.09 0.00 66 1005.2
20260505053019 67 206 2.6 5.2 0.00 0.09 0.00 66 1005.2
20260505052017 68 209 2.6 4.3 0.00 0.09 0.00 66 1005.1
20260505051020 68 212 2.6 4.3 0.00 0.09 0.00 65 1005.0
20260505041018 70 201 3.5 7.0 0.00 0.09 0.09 62 1004.7
20260505040019 70 200 4.3 8.7 0.00 0.09 0.09 62 1004.7
20260505035018 70 197 4.3 7.8 0.00 0.09 0.09 62 1004.8
20260505034018 70 200 4.3 8.7 0.00 0.09 0.09 62 1004.9
20260505033019 70 195 3.5 8.7 0.00 0.09 0.09 62 1005.0
20260505032019 70 205 3.5 7.0 0.00 0.09 0.09 62 1005.0
20260505031019 70 192 4.3 7.8 0.00 0.09 0.09 62 1005.0
20260505030019 70 191 4.3 8.7 0.00 0.09 0.09 62 1004.8
20260505025039 70 189 5.2 7.8 0.00 0.09 0.09 61 1004.5
20260505024019 70 189 5.2 7.8 0.00 0.09 0.09 61 1004.3
20260505023016 70 186 5.2 8.7 0.00 0.09 0.09 61 1004.3
20260505022019 71 193 5.2 8.7 0.00 0.09 0.09 60 1004.1
20260505021020 71 189 5.2 7.8 0.00 0.09 0.09 60 1004.0
20260505020020 71 184 4.3 7.0 0.00 0.09 0.09 60 1003.9
20260505015017 71 192 3.5 6.1 0.00 0.09 0.09 59 1003.9
20260505014119 71 197 2.6 5.2 0.00 0.09 0.09 59 1003.9
20260505013019 72 201 2.6 6.1 0.00 0.09 0.09 59 1003.8
20260505012020 72 196 2.6 6.1 0.00 0.09 0.09 58 1003.6
20260505011018 72 196 2.6 4.3 0.00 0.09 0.09 57 1003.5
20260505010018 73 193 2.6 6.1 0.00 0.09 0.09 57 1003.4
20260505005018 73 193 3.5 5.2 0.00 0.09 0.09 56 1003.3
20260505004018 74 194 3.5 6.1 0.00 0.09 0.09 56 1003.2
20260505003039 74 194 3.5 6.1 0.00 0.09 0.09 55 1003.3
20260505002018 75 195 3.5 6.1 0.00 0.09 0.09 54 1003.1
20260505001019 75 196 3.5 7.8 0.00 0.09 0.09 53 1003.1
20260505000019 76 195 4.3 7.0 0.00 0.09 0.09 52 1003.2
20260504235025 76 198 4.3 7.0 0.00 0.09 0.09 51 1003.1
20260504234016 76 201 3.5 6.1 0.00 0.09 0.09 51 1003.0
20260504233018 77 201 3.5 7.0 0.00 0.09 0.09 50 1003.3
20260504232020 77 204 5.2 7.8 0.00 0.09 0.09 50 1003.1
20260504231040 77 195 4.3 7.8 0.00 0.09 0.09 51 1003.4
20260504230018 77 198 3.5 5.2 0.00 0.09 0.09 51 1003.6
20260504225017 77 198 3.5 5.2 0.00 0.09 0.09 51 1003.7
20260504224017 77 197 3.5 5.2 0.00 0.09 0.09 52 1003.8
20260504223017 76 199 3.5 6.1 0.00 0.09 0.09 53 1003.8
20260504222019 75 195 4.3 7.8 0.00 0.09 0.09 54 1003.8
20260504221018 74 192 4.3 7.0 0.00 0.09 0.09 57 1003.8
20260504220019 74 190 5.2 7.0 0.00 0.09 0.09 57 1004.0
20260504215018 74 195 4.3 6.1 0.00 0.09 0.09 59 1003.9
20260504214019 73 189 4.3 7.0 0.00 0.09 0.09 60 1004.1
20260504213040 73 184 3.5 7.0 0.01 0.09 0.09 60 1004.2
20260504212019 71 191 3.5 7.0 0.01 0.09 0.09 60 1004.2
20260504211020 69 176 6.1 10.4 0.01 0.09 0.09 64 1004.3
20260504210019 68 198 3.5 5.2 0.03 0.09 0.09 70 1004.4
20260504205019 67 203 3.5 5.2 0.05 0.09 0.09 71 1004.8
20260504204016 67 191 3.5 6.1 0.06 0.08 0.08 72 1005.0
20260504203018 66 193 3.5 6.1 0.06 0.07 0.07 74 1005.2
20260504202040 65 198 2.6 5.2 0.06 0.07 0.07 77 1005.3
20260504201100 66 172 4.3 6.1 0.06 0.07 0.07 75 1004.9
20260504200017 65 177 5.2 7.8 0.04 0.06 0.06 72 1004.9
20260504195019 65 171 5.2 8.7 0.02 0.04 0.04 78 1005.7
20260504194018 65 47 0.9 2.6 0.01 0.02 0.02 73 1007.4
20260504193018 66 270 0.0 0.9 0.00 0.02 0.01 71 1007.0
20260504192021 66 149 0.0 0.9 0.00 0.02 0.01 71 1006.9
20260504191017 67 37 0.9 3.5 0.00 0.02 0.01 69 1007.0
20260504190019 67 22 2.6 4.3 0.00 0.02 0.01 69 1007.1
20260504185018 67 17 2.6 3.5 0.00 0.02 0.01 68 1007.0
20260504184018 68 16 1.7 2.6 0.00 0.02 0.01 66 1007.1
20260504183020 68 331 0.9 1.7 0.00 0.02 0.01 65 1007.0
20260504182019 69 217 0.9 2.6 0.00 0.02 0.01 63 1006.5
20260504181019 68 215 2.6 4.3 0.00 0.02 0.01 63 1006.5
20260504180020 68 200 2.6 5.2 0.00 0.02 0.01 66 1006.2
20260504175020 68 201 2.6 4.3 0.00 0.02 0.01 66 1006.3
20260504174017 68 198 2.6 4.3 0.00 0.02 0.01 66 1006.3
20260504173017 67 201 2.6 4.3 0.00 0.02 0.01 67 1006.5
20260504172019 67 191 3.5 6.1 0.00 0.02 0.01 68 1006.7
20260504171020 67 184 3.5 7.0 0.00 0.02 0.01 68 1007.0
20260504151021 71 199 1.7 3.5 0.00 0.01 0.01 59 1008.3
20260504141037 68 201 2.6 4.3 0.00 0.01 0.01 66 1008.3